Location: Newark
(41.0400°S, 62.7845°W)
Time: 07:46:15
(UTC+00:00)

Transit 2A - Pass Details

Date: 03 December 2021
Orbit: 591 x 967 km, 66.7° (Epoch: 19 January)

Event Time Altitude Azimuth Distance (km) Brightness Sun altitude
Rises 16:47:21 0° 315° (NW) 3,217 9.5 68.8°
Reaches altitude 10° 16:49:55 10° 308° (NW) 2,236 8.9 68.5°
Maximum altitude 16:54:45 44° 236° (SW) 948 7.2 68.0°
Drops below altitude 10° 16:59:12 10° 163° (SSE) 2,060 8.1 67.5°
Sets 17:01:30 0° 156° (SSE) 2,937 8.8 67.3°
